NOZ5AY ENZV-ENGM

Flight info

Callsign NOZ5AY
Flight time 0h 39m
Altitude 29000
Route UPLEV DCT OSKOM DCT RIPAM
Aircraft B38M/M-SDE2E3GHIJ1LRWXY/LB2

Departure

Time 2026-04-15 15:17
Airport Stavanger Airport, Sola (ENZV)

Arrival

Time 2026-04-15 15:56
Airport Oslo-Gardermoen International Airport (ENGM)
Time Latitude Longitude Altitude Speed Heading
2026-04-15 14:57 58.88389 5.62943 28 ft 0 kts 224°
2026-04-15 15:08 58.88391 5.62947 28 ft 2 kts 224°
2026-04-15 15:09 58.88402 5.62969 27 ft 2 kts 224°
2026-04-15 15:09 58.88414 5.62991 27 ft 2 kts 224°
2026-04-15 15:09 58.88424 5.63009 28 ft 0 kts 224°
2026-04-15 15:09 58.88423 5.63009 28 ft 0 kts 224°
2026-04-15 15:12 58.88423 5.63008 28 ft 1 kts 217°
2026-04-15 15:12 58.88418 5.63013 28 ft 1 kts 145°
2026-04-15 15:12 58.88414 5.63027 28 ft 3 kts 120°
2026-04-15 15:12 58.88408 5.63074 29 ft 5 kts 88°
2026-04-15 15:13 58.88419 5.63163 29 ft 10 kts 75°
2026-04-15 15:13 58.88437 5.63293 31 ft 9 kts 76°
2026-04-15 15:13 58.88469 5.63399 32 ft 9 kts 35°
2026-04-15 15:13 58.88532 5.63422 33 ft 10 kts
2026-04-15 15:14 58.88608 5.63419 34 ft 12 kts 359°
2026-04-15 15:14 58.88697 5.63419 34 ft 14 kts 360°
2026-04-15 15:14 58.88800 5.63414 33 ft 16 kts 358°
2026-04-15 15:14 58.88924 5.63411 32 ft 19 kts
2026-04-15 15:15 58.89070 5.63409 29 ft 22 kts 359°
2026-04-15 15:15 58.89209 5.63405 28 ft 15 kts 359°
2026-04-15 15:15 58.89295 5.63406 30 ft 10 kts 14°
2026-04-15 15:15 58.89339 5.63485 22 ft 8 kts 78°
2026-04-15 15:16 58.89343 5.63623 20 ft 11 kts 96°
2026-04-15 15:16 58.89320 5.63731 23 ft 8 kts 140°
2026-04-15 15:16 58.89216 5.63744 24 ft 29 kts 178°
2026-04-15 15:16 58.88745 5.63759 30 ft 107 kts 178°
2026-04-15 15:17 58.87754 5.63798 129 ft 170 kts 176°
2026-04-15 15:17 58.86515 5.63729 994 ft 185 kts 178°
2026-04-15 15:17 58.85190 5.63529 2213 ft 192 kts 178°
2026-04-15 15:17 58.83830 5.63542 3175 ft 200 kts 172°
2026-04-15 15:18 58.82387 5.63722 3973 ft 217 kts 175°
2026-04-15 15:18 58.80817 5.63855 4738 ft 234 kts 178°
2026-04-15 15:18 58.79137 5.63956 5586 ft 245 kts 179°
2026-04-15 15:18 58.77456 5.64035 6706 ft 246 kts 179°
2026-04-15 15:19 58.75719 5.64104 7602 ft 254 kts 180°
2026-04-15 15:19 58.73944 5.64163 8569 ft 257 kts 180°
2026-04-15 15:19 58.72132 5.64392 9427 ft 267 kts 167°
2026-04-15 15:19 58.70466 5.65996 10324 ft 274 kts 142°
2026-04-15 15:20 58.69241 5.68915 10983 ft 291 kts 118°
2026-04-15 15:20 58.68742 5.72724 11711 ft 303 kts 93°
2026-04-15 15:20 58.69141 5.76759 12432 ft 314 kts 67°
2026-04-15 15:20 58.70414 5.80187 13207 ft 321 kts 41°
2026-04-15 15:21 58.72332 5.82360 14035 ft 323 kts 17°
2026-04-15 15:21 58.74551 5.82879 14757 ft 323 kts 352°
2026-04-15 15:21 58.76769 5.82299 15476 ft 325 kts 357°
2026-04-15 15:21 58.79040 5.82381 16211 ft 327 kts
2026-04-15 15:22 58.81321 5.82457 16930 ft 329 kts
2026-04-15 15:22 58.83622 5.82496 17644 ft 331 kts
2026-04-15 15:22 58.85871 5.83120 18348 ft 333 kts 19°
2026-04-15 15:22 58.87903 5.85343 18959 ft 336 kts 40°
2026-04-15 15:23 58.89383 5.88780 19506 ft 340 kts 59°
2026-04-15 15:23 58.90553 5.92839 20069 ft 343 kts 59°
2026-04-15 15:23 58.91704 5.96897 20623 ft 346 kts 60°
2026-04-15 15:23 58.92835 6.00961 21175 ft 348 kts 60°
2026-04-15 15:24 58.93975 6.05108 21730 ft 350 kts 60°
2026-04-15 15:24 58.95117 6.09302 22284 ft 352 kts 60°
2026-04-15 15:24 58.96257 6.13516 22855 ft 354 kts 60°
2026-04-15 15:24 58.97401 6.17758 23393 ft 357 kts 60°
2026-04-15 15:25 58.98555 6.22043 23922 ft 358 kts 60°
2026-04-15 15:25 58.99559 6.26483 24321 ft 364 kts 71°
2026-04-15 15:25 59.00314 6.31186 24740 ft 367 kts 68°
2026-04-15 15:25 59.01143 6.35924 25070 ft 372 kts 68°
2026-04-15 15:26 59.01989 6.40689 25495 ft 375 kts 68°
2026-04-15 15:26 59.02851 6.45507 25816 ft 380 kts 68°
2026-04-15 15:26 59.03724 6.50366 26228 ft 383 kts 68°
2026-04-15 15:26 59.04605 6.55288 26552 ft 388 kts 67°
2026-04-15 15:27 59.05492 6.60247 26902 ft 391 kts 68°
2026-04-15 15:27 59.06384 6.65248 27275 ft 393 kts 68°
2026-04-15 15:27 59.07300 6.70286 27656 ft 395 kts 64°
2026-04-15 15:27 59.08513 6.75071 28021 ft 396 kts 60°
2026-04-15 15:28 59.09717 6.79901 28363 ft 400 kts 61°
2026-04-15 15:28 59.10918 6.84824 28726 ft 403 kts 62°
2026-04-15 15:28 59.12107 6.89757 29070 ft 406 kts 62°
2026-04-15 15:28 59.13310 6.94784 29269 ft 412 kts 62°
2026-04-15 15:29 59.15774 7.05130 29249 ft 429 kts 62°
2026-04-15 15:29 59.18270 7.15674 29253 ft 431 kts 62°
2026-04-15 15:30 59.20789 7.26360 29260 ft 430 kts 62°
2026-04-15 15:30 59.23261 7.36901 29266 ft 429 kts 62°
2026-04-15 15:31 59.25735 7.47504 29260 ft 429 kts 61°
2026-04-15 15:31 59.28201 7.58124 29265 ft 428 kts 61°
2026-04-15 15:32 59.30652 7.68729 29267 ft 428 kts 61°
2026-04-15 15:32 59.33097 7.79366 29272 ft 427 kts 61°
2026-04-15 15:33 59.35522 7.89964 29265 ft 426 kts 61°
2026-04-15 15:33 59.37939 8.00585 29271 ft 426 kts 61°
2026-04-15 15:34 59.40342 8.11195 29254 ft 425 kts 61°
2026-04-15 15:34 59.42735 8.21811 29248 ft 425 kts 61°
2026-04-15 15:35 59.45116 8.32428 29266 ft 425 kts 60°
2026-04-15 15:35 59.47445 8.42872 29274 ft 402 kts 60°
2026-04-15 15:36 59.48534 8.47771 29290 ft 391 kts 60°
2026-04-15 15:36 59.49620 8.52663 29281 ft 390 kts 60°
2026-04-15 15:36 59.51784 8.62453 29239 ft 390 kts 60°
2026-04-15 15:37 59.52863 8.67360 28447 ft 389 kts 60°
2026-04-15 15:37 59.53930 8.72215 27706 ft 385 kts 60°
2026-04-15 15:37 59.54988 8.77042 26984 ft 381 kts 61°
2026-04-15 15:37 59.56032 8.81818 26281 ft 377 kts 62°
2026-04-15 15:38 59.57061 8.86532 25597 ft 372 kts 62°
2026-04-15 15:38 59.58072 8.91176 24937 ft 367 kts 62°
2026-04-15 15:38 59.59074 8.95789 24294 ft 362 kts 62°
2026-04-15 15:38 59.60058 9.00326 23629 ft 358 kts 63°
2026-04-15 15:39 59.61031 9.04825 22876 ft 353 kts 63°
2026-04-15 15:39 59.61989 9.09259 22150 ft 350 kts 63°
2026-04-15 15:39 59.62936 9.13662 21461 ft 345 kts 64°
2026-04-15 15:39 59.63868 9.17996 20812 ft 341 kts 64°
2026-04-15 15:40 59.64791 9.22299 20167 ft 338 kts 64°
2026-04-15 15:40 59.65701 9.26549 19529 ft 335 kts 64°
2026-04-15 15:40 59.66605 9.30784 18912 ft 332 kts 65°
2026-04-15 15:40 59.67498 9.34973 18247 ft 329 kts 65°
2026-04-15 15:41 59.68378 9.39105 17716 ft 324 kts 65°
2026-04-15 15:41 59.69249 9.43204 17151 ft 322 kts 65°
2026-04-15 15:41 59.70113 9.47283 16609 ft 321 kts 65°
2026-04-15 15:41 59.70972 9.51342 16059 ft 318 kts 66°
2026-04-15 15:42 59.71822 9.55370 15643 ft 316 kts 66°
2026-04-15 15:42 59.72665 9.59374 15216 ft 314 kts 66°
2026-04-15 15:42 59.73504 9.63361 14799 ft 313 kts 66°
2026-04-15 15:42 59.74337 9.67333 14377 ft 311 kts 66°
2026-04-15 15:43 59.75164 9.71283 13947 ft 309 kts 66°
2026-04-15 15:43 59.75983 9.75202 13483 ft 307 kts 66°
2026-04-15 15:43 59.76788 9.79061 13030 ft 305 kts 67°
2026-04-15 15:43 59.77603 9.82976 12572 ft 302 kts 67°
2026-04-15 15:44 59.78393 9.86779 12119 ft 300 kts 67°
2026-04-15 15:44 59.79184 9.90591 11693 ft 298 kts 68°
2026-04-15 15:44 59.79970 9.94389 11265 ft 295 kts 68°
2026-04-15 15:44 59.80755 9.98185 10835 ft 292 kts 68°
2026-04-15 15:45 59.81514 10.01863 10409 ft 290 kts 69°
2026-04-15 15:45 59.82272 10.05547 9912 ft 288 kts 69°
2026-04-15 15:45 59.83028 10.09220 9393 ft 285 kts 69°
2026-04-15 15:45 59.83770 10.12835 8856 ft 280 kts 69°
2026-04-15 15:46 59.84495 10.16376 8333 ft 274 kts 69°
2026-04-15 15:46 59.85208 10.19863 7834 ft 268 kts 70°
2026-04-15 15:46 59.85903 10.23267 7341 ft 263 kts 70°
2026-04-15 15:46 59.86584 10.26605 6869 ft 258 kts 70°
2026-04-15 15:47 59.87251 10.29890 6370 ft 254 kts 70°
2026-04-15 15:47 59.87911 10.33130 5856 ft 251 kts 69°
2026-04-15 15:47 59.88559 10.36324 5370 ft 248 kts 69°
2026-04-15 15:47 59.89201 10.39497 5003 ft 245 kts 69°
2026-04-15 15:48 59.89839 10.42656 5001 ft 248 kts 69°
2026-04-15 15:48 59.90485 10.45854 4989 ft 244 kts 69°
2026-04-15 15:48 59.91089 10.48851 5000 ft 222 kts 69°
2026-04-15 15:48 59.91758 10.51535 5011 ft 216 kts 60°
2026-04-15 15:49 59.92585 10.54174 4987 ft 232 kts 59°
2026-04-15 15:49 59.93453 10.56939 4993 ft 238 kts 59°
2026-04-15 15:49 59.94208 10.59359 4999 ft 240 kts 59°
2026-04-15 15:49 59.95082 10.62183 4976 ft 240 kts 59°
2026-04-15 15:50 59.95960 10.65027 4816 ft 240 kts 60°
2026-04-15 15:50 59.96535 10.66895 4732 ft 239 kts 60°
2026-04-15 15:50 59.97403 10.69724 4570 ft 239 kts 60°
2026-04-15 15:50 59.98271 10.72555 4413 ft 238 kts 60°
2026-04-15 15:51 59.99127 10.75349 4296 ft 234 kts 60°
2026-04-15 15:51 59.99975 10.78122 4142 ft 232 kts 60°
2026-04-15 15:51 60.00815 10.80871 3976 ft 232 kts 60°
2026-04-15 15:51 60.01648 10.83608 3814 ft 231 kts 60°
2026-04-15 15:52 60.02482 10.86343 3600 ft 228 kts 60°
2026-04-15 15:52 60.03292 10.89004 3367 ft 218 kts 60°
2026-04-15 15:52 60.04056 10.91517 3213 ft 205 kts 60°
2026-04-15 15:52 60.04792 10.93938 3023 ft 204 kts 60°
2026-04-15 15:53 60.05529 10.96374 2856 ft 205 kts 60°
2026-04-15 15:53 60.06304 10.98684 2760 ft 191 kts 52°
2026-04-15 15:53 60.07192 11.00452 2761 ft 178 kts 43°
2026-04-15 15:53 60.08209 11.01901 2750 ft 181 kts 33°
2026-04-15 15:54 60.09331 11.03054 2694 ft 182 kts 24°
2026-04-15 15:54 60.10557 11.03763 2513 ft 185 kts 13°
2026-04-15 15:54 60.11813 11.04067 2121 ft 174 kts
2026-04-15 15:54 60.12960 11.04342 1891 ft 157 kts 11°
2026-04-15 15:55 60.14049 11.04704 1737 ft 159 kts 14°
2026-04-15 15:55 60.15106 11.05295 1451 ft 156 kts 19°
2026-04-15 15:55 60.16131 11.05973 1213 ft 155 kts 19°
2026-04-15 15:55 60.17141 11.06610 946 ft 153 kts 16°
2026-04-15 15:56 60.18165 11.07177 756 ft 147 kts 15°
2026-04-15 15:56 60.19102 11.07712 672 ft 122 kts 16°
2026-04-15 15:56 60.19679 11.08049 673 ft 33 kts 15°
2026-04-15 15:56 60.19811 11.08122 676 ft 19 kts 15°
2026-04-15 15:57 60.19836 11.08136 675 ft 17 kts 15°